Location: Caltech
(34.1382°N, 118.1253°W)
Time: 13:18:14
(UTC-07:00)

Aureole 3 Rocket - Visible Passes

Search period start: 25 April 2017 00:00
Search period end: 05 May 2017 00:00
Orbit: 399 x 1745 km, 82.5° (Epoch: 24 April)

Date Brightness Start Highest point End Pass type
(mag) Time Alt. Az. Time Alt. Az. Time Alt. Az.
25 Apr 5.7 01:41:23 45° WNW 01:41:23 45° WNW 01:49:04 10° N visible
25 Apr 6.4 23:02:02 21° ENE 23:02:02 21° ENE 23:07:02 10° NE visible
26 Apr 5.2 00:48:46 67° N 00:48:46 67° N 00:56:28 10° N visible
26 Apr 6.6 02:35:29 19° WNW 02:35:29 19° WNW 02:41:31 10° NNW visible
26 Apr 5.5 23:56:08 49° ENE 23:56:08 49° ENE 00:03:15 10° NNE visible
27 Apr 5.9 01:42:51 36° WNW 01:42:51 36° WNW 01:50:16 10° NNW visible
27 Apr 6.2 23:03:29 27° ENE 23:03:29 27° ENE 23:09:12 10° NNE visible
28 Apr 5.3 00:50:12 63° NW 00:50:12 63° NW 00:57:54 10° N visible
28 Apr 6.8 02:36:55 14° WNW 02:37:23 14° WNW 02:41:35 10° NW visible
28 Apr 6.8 22:10:49 12° ENE 22:10:49 12° ENE 22:12:44 10° ENE visible
28 Apr 5.2 23:57:32 60° NE 23:57:32 60° NE 00:04:52 10° NNE visible
29 Apr 6.1 01:44:15 29° WNW 01:44:15 29° WNW 01:51:17 10° NNW visible
29 Apr 5.9 23:04:51 33° ENE 23:04:51 33° ENE 23:11:08 10° NNE visible
30 Apr 5.4 00:51:34 54° WNW 00:51:34 54° WNW 00:59:13 10° N visible
30 Apr 6.5 22:12:08 16° ENE 22:12:08 16° ENE 22:15:55 10° NE visible
30 Apr 5.0 23:58:52 72° NNE 23:58:52 72° NNE 00:06:23 10° N visible
01 May 6.4 01:45:34 22° WNW 01:45:36 22° WNW 01:52:03 10° NNW visible
01 May 5.5 23:06:08 41° ENE 23:06:08 41° ENE 23:12:53 10° NNE visible
02 May 5.6 00:52:51 44° WNW 00:52:51 44° WNW 01:00:23 10° N visible
02 May 6.2 22:13:23 20° ENE 22:13:23 20° ENE 22:18:19 10° NE visible
03 May 4.9 00:00:05 77° NNW 00:00:05 77° NNW 00:07:47 10° N visible
03 May 6.6 01:46:48 16° WNW 01:47:25 16° WNW 01:52:25 10° NW visible
03 May 5.2 23:07:19 52° ENE 23:07:19 52° ENE 23:14:31 10° NNE visible
04 May 5.9 00:54:02 34° WNW 00:54:04 34° WNW 01:01:24 10° NNW visible
04 May 5.9 22:14:31 26° E 22:14:31 26° E 22:20:22 10° NE visible
